Time,TemperatureF,DewpointF,PressureIn,WindDirection,WindDirectionDegrees,WindSpeedMPH,WindSpeedGustMPH,Humidity,HourlyPrecipIn,Conditions,Clouds,dailyrainin,SoftwareType,DateUTC
2013-10-25 00:05:00,43.0,35.3,30.32,ESE,112,1.1,-999.0,74,-99.99,,,0.00,Acu-Link.com,2013-10-25 05:05:00,
2013-10-25 00:20:00,43.0,35.3,30.33,NE,45,1.7,-999.0,74,-99.99,,,0.00,Acu-Link.com,2013-10-25 05:20:00,
2013-10-25 00:35:00,43.0,34.9,30.33,ENE,67,3.2,-999.0,73,-99.99,,,0.00,Acu-Link.com,2013-10-25 05:35:00,
2013-10-25 00:50:00,43.0,34.6,30.33,East,90,3.7,-999.0,72,-99.99,,,0.00,Acu-Link.com,2013-10-25 05:50:00,
2013-10-25 01:05:00,42.8,34.4,30.33,NE,45,2.2,-999.0,72,-99.99,,,0.00,Acu-Link.com,2013-10-25 06:05:00,
2013-10-25 01:20:00,42.3,34.3,30.34,ESE,112,2.2,-999.0,73,-99.99,,,0.00,Acu-Link.com,2013-10-25 06:20:00,
2013-10-25 01:36:00,42.1,34.1,30.34,ENE,67,1.1,-999.0,73,-99.99,,,0.00,Acu-Link.com,2013-10-25 06:36:00,
2013-10-25 01:51:00,41.9,33.9,30.34,East,90,1.1,-999.0,73,-99.99,,,0.00,Acu-Link.com,2013-10-25 06:51:00,
2013-10-25 02:07:00,41.7,33.7,30.34,East,90,5.3,-999.0,73,-99.99,,,0.00,Acu-Link.com,2013-10-25 07:07:00,
2013-10-25 02:22:00,41.7,33.7,30.35,ESE,112,3.7,-999.0,73,-99.99,,,0.00,Acu-Link.com,2013-10-25 07:22:00,
2013-10-25 02:37:00,41.5,33.2,30.35,NNE,22,1.1,-999.0,72,-99.99,,,0.00,Acu-Link.com,2013-10-25 07:37:00,
2013-10-25 02:52:00,41.4,33.1,30.35,WNW,292,2.2,-999.0,72,-99.99,,,0.00,Acu-Link.com,2013-10-25 07:52:00,
2013-10-25 03:08:00,41.2,32.9,30.35,ENE,67,1.7,-999.0,72,-99.99,,,0.00,Acu-Link.com,2013-10-25 08:08:00,
2013-10-25 03:23:00,41.2,32.9,30.35,SE,135,3.2,-999.0,72,-99.99,,,0.00,Acu-Link.com,2013-10-25 08:23:00,
2013-10-25 03:38:00,41.0,32.7,30.35,NE,45,3.2,-999.0,72,-99.99,,,0.00,Acu-Link.com,2013-10-25 08:38:00,
2013-10-25 03:54:00,41.0,32.7,30.35,SSE,157,2.7,-999.0,72,-99.99,,,0.00,Acu-Link.com,2013-10-25 08:54:00,
2013-10-25 04:09:00,41.0,32.7,30.35,ENE,67,3.2,-999.0,72,-99.99,,,0.00,Acu-Link.com,2013-10-25 09:09:00,
2013-10-25 04:24:00,40.5,32.2,30.35,East,90,5.8,-999.0,72,-99.99,,,0.00,Acu-Link.com,2013-10-25 09:24:00,
2013-10-25 04:39:00,40.3,32.3,30.35,SW,225,0.0,-999.0,73,-99.99,,,0.00,Acu-Link.com,2013-10-25 09:39:00,
2013-10-25 04:54:00,39.9,32.0,30.35,ENE,67,0.0,-999.0,73,-99.99,,,0.00,Acu-Link.com,2013-10-25 09:54:00,
2013-10-25 05:09:00,39.6,32.0,30.35,ENE,67,0.0,-999.0,74,-99.99,,,0.00,Acu-Link.com,2013-10-25 10:09:00,
2013-10-25 05:24:00,38.8,31.6,30.37,East,90,2.2,-999.0,75,-99.99,,,0.00,Acu-Link.com,2013-10-25 10:24:00,
2013-10-25 05:40:00,39.2,32.0,30.37,NNE,22,1.7,-999.0,75,-99.99,,,0.00,Acu-Link.com,2013-10-25 10:40:00,
2013-10-25 05:55:00,39.7,31.8,30.38,ESE,112,2.2,-999.0,73,-99.99,,,0.00,Acu-Link.com,2013-10-25 10:55:00,
2013-10-25 06:10:00,39.6,31.7,30.38,NE,45,0.0,-999.0,73,-99.99,,,0.00,Acu-Link.com,2013-10-25 11:10:00,
2013-10-25 06:25:00,39.0,31.4,30.39,SE,135,1.7,-999.0,74,-99.99,,,0.00,Acu-Link.com,2013-10-25 11:25:00,
2013-10-25 06:40:00,39.0,31.4,30.39,ENE,67,1.1,-999.0,74,-99.99,,,0.00,Acu-Link.com,2013-10-25 11:40:00,
2013-10-25 06:55:00,38.8,31.6,30.38,NNE,22,1.7,-999.0,75,-99.99,,,0.00,Acu-Link.com,2013-10-25 11:55:00,
2013-10-25 07:10:00,38.8,31.6,30.39,NE,45,0.0,-999.0,75,-99.99,,,0.00,Acu-Link.com,2013-10-25 12:10:00,
2013-10-25 07:25:00,39.2,31.6,30.38,WNW,292,1.7,-999.0,74,-99.99,,,0.00,Acu-Link.com,2013-10-25 12:25:00,
2013-10-25 07:40:00,39.6,32.0,30.38,East,90,1.7,-999.0,74,-99.99,,,0.00,Acu-Link.com,2013-10-25 12:40:00,
2013-10-25 07:56:00,39.9,32.0,30.38,SW,225,0.0,-999.0,73,-99.99,,,0.00,Acu-Link.com,2013-10-25 12:56:00,
2013-10-25 08:11:00,40.6,32.6,30.38,NNE,22,3.2,-999.0,73,-99.99,,,0.00,Acu-Link.com,2013-10-25 13:11:00,
2013-10-25 08:26:00,41.7,33.0,30.38,ENE,67,1.7,-999.0,71,-99.99,,,0.00,Acu-Link.com,2013-10-25 13:26:00,
2013-10-25 08:41:00,43.0,33.5,30.39,NNE,22,3.7,-999.0,69,-99.99,,,0.00,Acu-Link.com,2013-10-25 13:41:00,
2013-10-25 08:56:00,44.2,34.3,30.39,North,0,1.1,-999.0,68,-99.99,,,0.00,Acu-Link.com,2013-10-25 13:56:00,
2013-10-25 09:11:00,44.8,34.5,30.39,SSE,157,0.0,-999.0,67,-99.99,,,0.00,Acu-Link.com,2013-10-25 14:11:00,
2013-10-25 09:26:00,45.3,34.6,30.40,SSE,157,3.2,-999.0,66,-99.99,,,0.00,Acu-Link.com,2013-10-25 14:26:00,
2013-10-25 09:41:00,46.2,35.5,30.40,South,180,1.7,-999.0,66,-99.99,,,0.00,Acu-Link.com,2013-10-25 14:41:00,
2013-10-25 09:56:00,46.8,36.4,30.40,NNE,22,0.0,-999.0,67,-99.99,,,0.00,Acu-Link.com,2013-10-25 14:56:00,
2013-10-25 10:11:00,48.2,37.0,30.40,WNW,292,0.0,-999.0,65,-99.99,,,0.00,Acu-Link.com,2013-10-25 15:11:00,
2013-10-25 10:27:00,49.5,37.0,30.39,ESE,112,3.2,-999.0,62,-99.99,,,0.00,Acu-Link.com,2013-10-25 15:27:00,
2013-10-25 10:42:00,50.5,36.7,30.38,SSE,157,2.7,-999.0,59,-99.99,,,0.00,Acu-Link.com,2013-10-25 15:42:00,
2013-10-25 10:57:00,50.2,36.4,30.38,WSW,247,2.7,-999.0,59,-99.99,,,0.00,Acu-Link.com,2013-10-25 15:57:00,
2013-10-25 11:12:00,51.3,37.0,30.39,West,270,3.2,-999.0,58,-99.99,,,0.00,Acu-Link.com,2013-10-25 16:12:00,
2013-10-25 11:27:00,54.7,38.4,30.38,South,180,3.7,-999.0,54,-99.99,,,0.00,Acu-Link.com,2013-10-25 16:27:00,
2013-10-25 11:42:00,54.3,38.0,30.37,SSE,157,5.3,-999.0,54,-99.99,,,0.00,Acu-Link.com,2013-10-25 16:42:00,
2013-10-25 11:57:00,55.0,38.2,30.37,SE,135,4.7,-999.0,53,-99.99,,,0.00,Acu-Link.com,2013-10-25 16:57:00,
2013-10-25 12:12:00,57.0,39.1,30.37,SSE,157,3.2,-999.0,51,-99.99,,,0.00,Acu-Link.com,2013-10-25 17:12:00,
2013-10-25 12:27:00,58.1,39.6,30.36,South,180,3.7,-999.0,50,-99.99,,,0.00,Acu-Link.com,2013-10-25 17:27:00,
2013-10-25 12:43:00,59.4,40.8,30.35,East,90,3.2,-999.0,50,-99.99,,,0.00,Acu-Link.com,2013-10-25 17:43:00,
2013-10-25 12:58:00,59.7,41.0,30.34,SE,135,1.1,-999.0,50,-99.99,,,0.00,Acu-Link.com,2013-10-25 17:58:00,
2013-10-25 13:13:00,60.4,41.2,30.33,SSE,157,4.7,-999.0,49,-99.99,,,0.00,Acu-Link.com,2013-10-25 18:13:00,
2013-10-25 13:28:00,61.9,42.0,30.32,ESE,112,1.1,-999.0,48,-99.99,,,0.00,Acu-Link.com,2013-10-25 18:28:00,
2013-10-25 13:43:00,62.4,42.4,30.31,SW,225,3.7,-999.0,48,-99.99,,,0.00,Acu-Link.com,2013-10-25 18:43:00,
2013-10-25 13:58:00,63.1,42.5,30.29,SSE,157,4.7,-999.0,47,-99.99,,,0.00,Acu-Link.com,2013-10-25 18:58:00,
2013-10-25 14:13:00,63.9,42.7,30.28,SW,225,3.2,-999.0,46,-99.99,,,0.00,Acu-Link.com,2013-10-25 19:13:00,
2013-10-25 14:28:00,64.6,42.2,30.27,South,180,1.7,-999.0,44,-99.99,,,0.00,Acu-Link.com,2013-10-25 19:28:00,
2013-10-25 14:43:00,68.4,43.1,30.26,SSE,157,2.2,-999.0,40,-99.99,,,0.00,Acu-Link.com,2013-10-25 19:43:00,
2013-10-25 14:59:00,69.1,44.4,30.25,South,180,0.0,-999.0,41,-99.99,,,0.00,Acu-Link.com,2013-10-25 19:59:00,
2013-10-25 15:14:00,70.9,44.7,30.24,SSE,157,4.7,-999.0,39,-99.99,,,0.00,Acu-Link.com,2013-10-25 20:14:00,
2013-10-25 15:29:00,66.0,44.0,30.24,NNE,22,3.2,-999.0,45,-99.99,,,0.00,Acu-Link.com,2013-10-25 20:29:00,
2013-10-25 15:44:00,66.0,44.6,30.23,SSE,157,2.2,-999.0,46,-99.99,,,0.00,Acu-Link.com,2013-10-25 20:44:00,
2013-10-25 15:59:00,66.2,44.8,30.23,SSE,157,2.2,-999.0,46,-99.99,,,0.00,Acu-Link.com,2013-10-25 20:59:00,
2013-10-25 16:14:00,63.0,44.1,30.22,WSW,247,3.7,-999.0,50,-99.99,,,0.00,Acu-Link.com,2013-10-25 21:14:00,
2013-10-25 16:29:00,65.1,44.4,30.21,South,180,3.7,-999.0,47,-99.99,,,0.00,Acu-Link.com,2013-10-25 21:29:00,
2013-10-25 16:44:00,64.9,44.7,30.21,SSE,157,2.2,-999.0,48,-99.99,,,0.00,Acu-Link.com,2013-10-25 21:44:00,
2013-10-25 16:59:00,64.9,44.7,30.21,West,270,1.1,-999.0,48,-99.99,,,0.00,Acu-Link.com,2013-10-25 21:59:00,
2013-10-25 17:15:00,62.6,44.7,30.20,SSW,202,3.2,-999.0,52,-99.99,,,0.00,Acu-Link.com,2013-10-25 22:15:00,
2013-10-25 17:30:00,61.9,44.6,30.20,South,180,2.2,-999.0,53,-99.99,,,0.00,Acu-Link.com,2013-10-25 22:30:00,
2013-10-25 17:45:00,62.8,44.9,30.19,South,180,2.7,-999.0,52,-99.99,,,0.00,Acu-Link.com,2013-10-25 22:45:00,
2013-10-25 18:00:00,62.8,44.9,30.19,SE,135,0.0,-999.0,52,-99.99,,,0.00,Acu-Link.com,2013-10-25 23:00:00,
2013-10-25 18:15:00,60.3,44.1,30.18,South,180,0.0,-999.0,55,-99.99,,,0.00,Acu-Link.com,2013-10-25 23:15:00,
2013-10-25 18:30:00,58.3,44.0,30.18,South,180,0.0,-999.0,59,-99.99,,,0.00,Acu-Link.com,2013-10-25 23:30:00,
2013-10-25 18:46:00,56.5,44.1,30.18,SE,135,0.0,-999.0,63,-99.99,,,0.00,Acu-Link.com,2013-10-25 23:46:00,
2013-10-25 19:01:00,55.2,43.6,30.18,West,270,0.0,-999.0,65,-99.99,,,0.00,Acu-Link.com,2013-10-26 00:01:00,
2013-10-25 19:16:00,54.0,43.7,30.18,West,270,0.0,-999.0,68,-99.99,,,0.00,Acu-Link.com,2013-10-26 00:16:00,
2013-10-25 19:31:00,52.9,43.4,30.18,South,180,0.0,-999.0,70,-99.99,,,0.00,Acu-Link.com,2013-10-26 00:31:00,
2013-10-25 19:46:00,52.5,43.0,30.18,WSW,247,0.0,-999.0,70,-99.99,,,0.00,Acu-Link.com,2013-10-26 00:46:00,
2013-10-25 20:01:00,51.6,42.5,30.18,South,180,0.0,-999.0,71,-99.99,,,0.00,Acu-Link.com,2013-10-26 01:01:00,
2013-10-25 20:16:00,51.6,42.5,30.18,SSE,157,1.1,-999.0,71,-99.99,,,0.00,Acu-Link.com,2013-10-26 01:16:00,
2013-10-25 20:31:00,51.1,42.0,30.18,East,90,0.0,-999.0,71,-99.99,,,0.00,Acu-Link.com,2013-10-26 01:31:00,
2013-10-25 20:47:00,50.7,41.6,30.18,NNW,337,1.7,-999.0,71,-99.99,,,0.00,Acu-Link.com,2013-10-26 01:47:00,
2013-10-25 21:02:00,50.9,41.8,30.18,NNE,22,0.0,-999.0,71,-99.99,,,0.00,Acu-Link.com,2013-10-26 02:02:00,
2013-10-25 21:17:00,50.9,41.8,30.19,South,180,1.1,-999.0,71,-99.99,,,0.00,Acu-Link.com,2013-10-26 02:17:00,
2013-10-25 21:32:00,50.9,41.5,30.18,South,180,3.2,-999.0,70,-99.99,,,0.00,Acu-Link.com,2013-10-26 02:32:00,
2013-10-25 21:47:00,50.9,41.5,30.18,ESE,112,2.2,-999.0,70,-99.99,,,0.00,Acu-Link.com,2013-10-26 02:47:00,
2013-10-25 22:02:00,50.5,41.1,30.18,NNW,337,1.7,-999.0,70,-99.99,,,0.00,Acu-Link.com,2013-10-26 03:02:00,
2013-10-25 22:17:00,50.4,41.0,30.19,ENE,67,1.1,-999.0,70,-99.99,,,0.00,Acu-Link.com,2013-10-26 03:17:00,
2013-10-25 22:32:00,49.8,40.8,30.19,SSW,202,0.0,-999.0,71,-99.99,,,0.00,Acu-Link.com,2013-10-26 03:32:00,
2013-10-25 22:48:00,49.3,40.7,30.19,SSE,157,2.2,-999.0,72,-99.99,,,0.00,Acu-Link.com,2013-10-26 03:48:00,
2013-10-25 23:03:00,48.7,40.4,30.19,South,180,0.0,-999.0,73,-99.99,,,0.00,Acu-Link.com,2013-10-26 04:03:00,
2013-10-25 23:18:00,48.2,40.3,30.18,South,180,2.2,-999.0,74,-99.99,,,0.00,Acu-Link.com,2013-10-26 04:18:00,
2013-10-25 23:33:00,48.0,40.5,30.18,SSE,157,0.0,-999.0,75,-99.99,,,0.00,Acu-Link.com,2013-10-26 04:33:00,
2013-10-25 23:48:00,48.4,40.8,30.17,SE,135,0.0,-999.0,75,-99.99,,,0.00,Acu-Link.com,2013-10-26 04:48:00,